Regional Weather Roundup
Issued by NWS Charleston, SC

Current Version | Previous Version | Text Only | Print | Product List | Glossary Off
Versions: 1 2 3 4 5 6 7 8 9 10 11 12 13 14 15 16 17 18 19 20 21 22 23 24 25 26 27 28 29 30 31 32 33 34 35 36 37 38 39 40 41 42 43 44 45 46 47 48 49 50
000 ASUS42 KCHS 280213 RWRCHS REGIONAL WEATHER ROUNDUP NATIONAL WEATHER SERVICE CHARLESTON SC 1000 PM EDT WED APR 27 2016 NOTE: "FAIR" INDICATES FEW OR NO CLOUDS BELOW 12,000 FEET WITH NO SIGNIFICANT WEATHER AND/OR OBSTRUCTIONS TO VISIBILITY. NOT ALL STATIONS ARE QUALITY CONTROLLED. USE DATA WITH CAUTION... ESPECIALLY DEWPOINT OBSERVATIONS. SCZ027-030-031-034>040-042>050-280300- ...SOUTHEAST SOUTH CAROLINA... CITY SKY/WX TMP DP RH WIND PRES REMARKS N CHARLESTON CLOUDY 71 63 75 S9 29.92R WATERFRONT PRK N/A 72 66 81 S9 29.89R MOUNT PLEASANT FAIR 72 64 78 S7 29.93R JOHNS ISLAND FAIR 72 66 83 S10 29.92R PINOPOLIS N/A 73 63 68 S7 29.82R MONCKS CORNER FAIR 68 59 73 S8 29.91R SUMMERVILLE FAIR 72 64 78 S3 29.92R BEAUFORT MCAS PTCLDY 72 65 78 S7 29.92R BEAUFORT ARPT FAIR 72 63 73 S8 29.91R HILTON HEAD IS CLOUDY 72 68 88 S7 29.93R WALTERBORO CLOUDY 73 63 68 S8 29.92R ALLENDALE FAIR 75 59 57 S8 29.89R ...SOUTHERN MIDLANDS AND PEE DEE... CITY SKY/WX TMP DP RH WIND PRES REMARKS GEORGETOWN FAIR 68 63 83 S6 29.93R KINGSTREE FAIR 72 59 64 SE6 29.90R ORANGEBURG CLOUDY 73 60 63 S9 29.90R BARNWELL FAIR 79 64 61 S8 29.89R AIKEN FAIR 72 61 68 S7 29.92R MANNING NOT AVBL COLUMBIA PTCLDY 78 63 59 S13 29.86R SUMTER CLOUDY 75 62 62 S10 29.87R FLORENCE CLEAR 75 63 66 S12 29.88R MYRTLE BEACH CLEAR 72 61 68 SW12 29.92 N MYRTLE BEACH CLEAR 70 66 87 SW17 29.90R $$ GAZ063-065-086>088-099>101-113>116-118-119-134>141-150-280300- ...SOUTHEAST GEORGIA... CITY SKY/WX TMP DP RH WIND PRES REMARKS SAVANNAH ARPT MOCLDY 73 63 70 S10 29.92R HUNTER AAF CLEAR 73 67 81 S8 29.90R FORT STEWART MOCLDY 72 61 66 CALM 29.90R STATESBORO PTCLDY 78 65 65 S8 29.90R SYLVANIA CLEAR 75 62 63 S5 29.91R CLAXTON FAIR 75 63 65 CALM 29.90R ...CSRA...CENTRAL AND FAR SOUTHEAST GEORGIA... CITY SKY/WX TMP DP RH WIND PRES REMARKS THOMSON CLOUDY 73 66 78 CALM 29.91S AUGUSTA-BUSH CLEAR 67 62 84 CALM 29.87R AUGUSTA-DANIEL PTCLDY 78 59 51 SW3 29.88R SWAINSBORO FAIR 75 61 60 CALM 29.90R VIDALIA PTCLDY 75 63 64 S3 29.91R EASTMAN MOCLDY 77 65 67 W9G16 29.93R HAZLEHURST FAIR 75 64 67 CALM 29.89R ALMA PTCLDY 73 65 75 SW3 29.91R WAYCROSS CLOUDY 74 65 72 W7 29.91R JESUP MOCLDY 77 64 65 S5 29.92R BAXLEY FAIR 73 66 78 SE3 29.91R BRUNSWICK CLOUDY 79 68 69 S13G23 29.93S SAINT SIMONS CLOUDY 73 67 81 S13G21 29.93R $$ SCZ027-028-034-036>038-045-046-048>050-GAZ119-141-280300- ...LAKE AND SUPPLEMENTAL COASTAL OBSERVATIONS... STATION/POSITION TIME TEMP WIND PRES WAVE SWELL AIR SEA DIR/SP/G HT/PER HT/PER/DIR (UTC) (F) (DEG/KT/KT) (MB) (FT/S) (FT/S/D) WINYAH BAY 0045 72 210/ 11 1011.0 LAKE MURRAY 0100 76 210/ 3/ 4 1009.8R ACE BASIN NERRS 0045 72 CALM 1012.0 FORT PULASKI 0100 72 71 1012.6R SAPELO ISLAND 0100 73 160/ 12 1012.0S $$ ANZ835-935-AMZ111-154-330-350-352-354-370-450-454-472-280300- ...C-MAN AND BUOY OBSERVATIONS... STATION/POSITION TIME TEMP WIND PRES WAVE SWELL AIR SEA DIR/SP/G HT/PER HT/PER/DIR (UTC) (F) (DEG/KT/KT) (MB) (FT/S) (FT/S/D) BUOY 41004 0150 74 73 190/ 10/ 12 1013.0R 2/ 4 2/ 6 BUOY 41008 NOT AVBL FOLLY BEACH CMAN 0100 71 200/ 9/ 11 1013.0R CAPERS NEARSHORE 0108 71 69 210/ 12/ 17 1012.5R FRIPP NEARSHORE 0108 71 71 180/ 14/ 17 1012.2R STATION/POSITION TIME TEMP WIND PRES WAVE SWELL AIR SEA DIR/SP/G HT/PER HT/PER/DIR (UTC) (F) (DEG/KT/KT) (MB) (FT/S) (FT/S/D) 5E ST. MARYS GA 0121 73 N/A 4/ 4 FRYING PAN BUOY 0100 72 72 200/ 12/ 14 1012.5R BUOY 41025 0150 73 71 220/ 16/ 17 1012.5R 5/ 5 2/100/12 CAPE LOOKOUT NC 0100 69 220/ 8/ 12 1012.2R BUOY 41002 0150 71 71 170/ 10/ 12 1016.4R 2/ 9 2/ 80/ 9 BUOY 41010 0120 75 76 150/ 10/ 10 1015.1R ST AUGUSTINE FL 0200 72 73 170/ 14/ 16 1014.5R $$

USA.gov is the U.S. government's official web portal to all federal, state and local government web resources and services.